KF6ILA Weather Reports


time (UTC)temp
C
wind
direction
speed
KPH
gust
KPH
rain 1hr
cm
rain 24hr
cm
rain mn
cm
humidity
%
barometer
mb
20260508172148 22 280 22.5 32.2 0.00 0.00 0.00 39 1016.7
20260508170656 22 275 20.9 33.8 0.00 0.00 0.00 37 1016.6
20260508165702 22 282 14.5 37.0 0.00 0.00 0.00 38 1016.7
20260508165205 22 281 16.1 29.0 0.00 0.00 0.00 40 1016.6
20260508163714 22 262 16.1 27.4 0.00 0.00 0.00 42 1016.6
20260508163217 22 257 16.1 25.7 0.00 0.00 0.00 42 1016.7
20260508160732 21 266 14.5 24.1 0.00 0.00 0.00 40 1016.6
20260508160235 21 281 16.1 20.9 0.00 0.00 0.00 40 1016.7
20260508155241 21 274 14.5 24.1 0.00 0.00 0.00 41 1016.6
20260508154744 21 266 12.9 22.5 0.00 0.00 0.00 42 1016.7
20260508150311 20 265 12.9 25.7 0.00 0.00 0.00 37 1016.5
20260508145814 20 269 12.9 25.7 0.00 0.00 0.00 37 1016.4
20260508142832 19 288 9.7 24.1 0.00 0.00 0.00 40 1016.3
20260508135850 17 272 12.9 24.1 0.00 0.00 0.00 45 1015.3
20260508135353 17 284 14.5 20.9 0.00 0.00 0.00 45 1015.4
20260508134856 17 272 14.5 25.7 0.00 0.00 0.00 44 1015.2
20260508134400 17 273 14.5 25.7 0.00 0.00 0.00 45 1015.1
20260508133902 17 272 16.1 25.7 0.00 0.00 0.00 46 1015.1
20260508133405 17 281 14.5 25.7 0.00 0.00 0.00 47 1015.1
20260508131417 16 275 17.7 25.7 0.00 0.00 0.00 49 1015.0
20260508130920 16 271 16.1 27.4 0.00 0.00 0.00 50 1015.0
20260508130423 16 271 14.5 32.2 0.00 0.00 0.00 50 1014.9
20260508125926 16 269 16.1 32.2 0.00 0.00 0.00 50 1014.8
20260508124932 16 272 16.1 27.4 0.00 0.00 0.00 53 1014.8
20260508120459 16 270 16.1 25.7 0.00 0.00 0.00 51 1014.7
20260508120002 16 275 12.9 24.1 0.00 0.00 0.00 50 1014.7
20260508113517 16 279 16.1 25.7 0.00 0.00 0.00 51 1014.7
20260508112026 16 278 14.5 22.5 0.00 0.00 0.00 51 1014.7
20260508111529 16 277 11.3 20.9 0.00 0.00 0.00 51 1014.7
20260508110038 16 272 11.3 25.7 0.00 0.00 0.00 51 1014.8
20260508104050 16 257 16.1 20.9 0.00 0.00 0.00 51 1014.7
20260508103553 16 263 11.3 24.1 0.00 0.00 0.00 51 1014.8
20260508102559 16 253 14.5 20.9 0.00 0.00 0.00 50 1014.9
20260508102102 16 262 12.9 20.9 0.00 0.00 0.00 51 1015.0
20260508101605 16 272 12.9 20.9 0.00 0.00 0.00 50 1015.0
20260508101108 16 264 12.9 22.5 0.00 0.00 0.00 50 1015.1
20260508094623 16 261 12.9 22.5 0.00 0.00 0.00 51 1015.2
20260508094126 16 270 11.3 22.5 0.00 0.00 0.00 50 1015.3
20260508093132 16 262 12.9 24.1 0.00 0.00 0.00 49 1015.3
20260508090150 16 246 20.9 27.4 0.00 0.00 0.00 48 1015.5
20260508084659 17 257 14.5 24.1 0.00 0.00 0.00 47 1015.4
20260508084202 17 259 16.1 25.7 0.00 0.00 0.00 46 1015.5
20260508082711 17 261 19.3 29.0 0.00 0.00 0.00 44 1015.6
20260508081717 17 254 16.1 27.4 0.00 0.00 0.00 46 1015.8
20260508081220 17 252 17.7 27.4 0.00 0.00 0.00 46 1015.8
20260508075729 17 268 14.5 24.1 0.00 0.00 0.00 46 1015.9
20260508074735 17 258 16.1 27.4 0.00 0.00 0.00 47 1016.0
20260508073741 17 256 19.3 27.4 0.00 0.00 0.00 47 1016.1
20260508073244 17 258 19.3 27.4 0.00 0.00 0.00 47 1016.2
20260508071256 17 263 20.9 30.6 0.00 0.00 0.00 49 1016.1
20260508070302 17 256 17.7 29.0 0.00 0.00 0.00 50 1016.0
20260508065805 17 261 17.7 25.7 0.00 0.00 0.00 50 1016.1
20260508065308 16 267 16.1 25.7 0.00 0.00 0.00 52 1016.1
20260508064811 16 257 19.3 27.4 0.00 0.00 0.00 53 1016.1
20260508062823 16 256 16.1 25.7 0.00 0.00 0.00 51 1016.3
20260508062326 16 251 17.7 27.4 0.00 0.00 0.00 51 1016.2
20260508061829 16 255 17.7 27.4 0.00 0.00 0.00 51 1016.2
20260508061332 16 251 17.7 27.4 0.00 0.00 0.00 51 1016.1
20260508060836 16 261 17.7 25.7 0.00 0.00 0.00 51 1016.2
20260508055841 16 247 19.3 29.0 0.00 0.00 0.00 51 1016.3
20260508054847 16 252 17.7 29.0 0.00 0.00 0.00 52 1016.3
20260508053853 16 246 20.9 29.0 0.00 0.00 0.00 51 1016.2
20260508051408 16 244 20.9 29.0 0.00 0.00 0.00 50 1016.3
20260508050911 16 248 22.5 29.0 0.00 0.00 0.00 50 1016.4
20260508050414 16 250 22.5 29.0 0.00 0.00 0.00 50 1016.4
20260508045917 16 249 24.1 29.0 0.00 0.00 0.00 50 1016.3
20260508045420 16 249 20.9 29.0 0.00 0.00 0.00 50 1016.4
20260508044923 16 251 17.7 29.0 0.00 0.00 0.00 51 1016.5
20260508044426 16 247 19.3 30.6 0.00 0.00 0.00 49 1016.5
20260508043432 16 250 20.9 33.8 0.00 0.00 0.00 50 1016.5
20260508042935 16 249 25.7 33.8 0.00 0.00 0.00 51 1016.4
20260508035953 16 253 19.3 30.6 0.00 0.00 0.00 54 1015.8
20260508035457 16 255 22.5 32.2 0.00 0.00 0.00 55 1015.9
20260508034005 16 269 19.3 33.8 0.00 0.00 0.00 56 1015.6
20260508032017 16 263 22.5 33.8 0.00 0.00 0.00 60 1015.3
20260508031023 16 262 17.7 27.4 0.00 0.00 0.00 63 1015.3
20260508030526 16 256 16.1 27.4 0.00 0.00 0.00 64 1015.2
20260508025532 16 261 17.7 27.4 0.00 0.00 0.00 62 1015.1
20260508024538 16 265 16.1 29.0 0.00 0.00 0.00 65 1015.0
20260508024041 16 258 16.1 29.0 0.00 0.00 0.00 66 1015.0
20260508023047 17 258 19.3 33.8 0.00 0.00 0.00 65 1015.0
20260508022053 17 259 20.9 30.6 0.00 0.00 0.00 64 1014.9
20260508015608 18 261 22.5 33.8 0.00 0.00 0.00 64 1014.8
20260508015111 18 258 17.7 33.8 0.00 0.00 0.00 68 1014.9
20260508014614 18 255 22.5 32.2 0.00 0.00 0.00 68 1014.9
20260508014117 18 262 19.3 30.6 0.00 0.00 0.00 63 1015.0
20260508012626 19 260 19.3 30.6 0.00 0.00 0.00 66 1015.0
20260508012129 19 275 20.9 29.0 0.00 0.00 0.00 63 1014.9
20260508010141 20 276 19.3 29.0 0.00 0.00 0.00 65 1015.1
20260508004650 20 272 22.5 32.2 0.00 0.00 0.00 61 1015.0
20260508004153 21 260 22.5 32.2 0.00 0.00 0.00 61 1015.1
20260508001708 21 284 14.5 32.2 0.00 0.00 0.00 57 1015.0
20260507234726 22 268 19.3 32.2 0.00 0.00 0.00 51 1015.3
20260507230750 22 275 19.3 29.0 0.00 0.00 0.00 52 2015.3
20260507223808 22 285 20.9 32.2 0.00 0.00 0.00 51 1015.3
20260507223311 22 265 16.1 25.7 0.00 0.00 0.00 51 1015.5
20260507221820 22 277 14.5 30.6 0.00 0.00 0.00 52 1015.5
20260507220329 22 282 17.7 29.0 0.00 0.00 0.00 50 1015.9
20260507215832 22 277 16.1 27.4 0.00 0.00 0.00 50 1015.9
20260507212850 22 270 16.1 32.2 0.00 0.00 0.00 50 1016.2
20260507204914 23 280 17.7 25.7 0.00 0.00 0.00 47 1015.8
20260507204417 23 264 14.5 25.7 0.00 0.00 0.00 45 1015.8
20260507194453 26 218 6.4 20.9 0.00 0.00 0.00 27 1016.4
20260507193956 26 116 6.4 22.5 0.00 0.00 0.00 31 1016.4
20260507193459 26 96 9.7 24.1 0.00 0.00 0.00 27 1016.6
20260507193002 26 91 3.2 24.1 0.00 0.00 0.00 24 1016.6
20260507192506 26 116 9.7 32.2 0.00 0.00 0.00 25 1016.6
20260507192008 26 136 11.3 32.2 0.00 0.00 0.00 28 1016.5
20260507191512 26 111 14.5 33.8 0.00 0.00 0.00 28 1016.5
20260507191014 26 142 11.3 33.8 0.00 0.00 0.00 27 1016.6
20260507190517 26 116 16.1 29.0 0.00 0.00 0.00 29 1016.7
20260507190020 26 103 6.4 30.6 0.00 0.00 0.00 28 1016.8
20260507185525 26 121 20.9 30.6 0.00 0.00 0.00 27 1016.8
20260507185026 26 103 16.1 29.0 0.00 0.00 0.00 31 1016.8
20260507184530 26 113 11.3 24.1 0.00 0.00 0.00 28 1016.8
20260507184032 26 128 14.5 24.1 0.00 0.00 0.00 30 1016.8
20260507183536 25 103 14.5 30.6 0.00 0.00 0.00 32 1017.0
20260507183038 26 69 12.9 33.8 0.00 0.00 0.00 30 1017.0
20260507182542 26 105 20.9 33.8 0.00 0.00 0.00 30 1017.1
20260507182044 26 109 19.3 25.7 0.00 0.00 0.00 31 1017.3
20260507181548 26 102 12.9 24.1 0.00 0.00 0.00 30 1017.3
20260507181051 25 97 16.1 25.7 0.00 0.00 0.00 30 1017.3
20260507180554 25 86 9.7 25.7 0.00 0.00 0.00 32 1017.3
20260507180056 25 97 11.3 24.1 0.00 0.00 0.00 32 1017.4